Location: Kinloch
(38.7406°N, 90.3254°W)
Time: 15:55:15
(UTC+00:00)

Cosmos 1484 Rocket - Pass Details

Date: 13 February 2026
Orbit: 437 x 465 km, 97.6° (Epoch: 9 March)

Event Time Altitude Azimuth Distance (km) Brightness Sun altitude
Rises 12:10:41 0° 8° (N) 2,513 6.2 -9.2°
Reaches altitude 10° 12:12:45 10° 4° (N) 1,633 5.2 -8.8°
Maximum altitude 12:16:13 60° 285° (WNW) 542 2.5 -8.1°
Drops below altitude 10° 12:19:38 10° 205° (SSW) 1,617 5.1 -7.5°
Sets 12:21:41 0° 201° (SSW) 2,486 6.1 -7.1°
